Home   Weather   Cincinnati   Past weeks

Flag for USA Past Weather in Cincinnati, Ohio, USA — Yesterday and Last 2 Weeks

Now
54 °F

Sunny.


Feels Like: 53 °F
Forecast: 43 / 67 °F
Wind: 6 mph from Northeast

Location: Cincinnati Municipal Airport Lunken Field

Current Time: Apr 24, 2017 at 9:24:30 am

Latest Report: Apr 24, 2017 at 8:53 am


Visibility: 10 mi

Pressure: 29.95 "Hg

Humidity: 67%

Dew Point: 43 °F

Location of CincinnatiLocation

Past Weather in Cincinnati — Graph

°F

Cincinnati Temperature Yesterday

Maximum temperature yesterday: 63 °F (at 3:53 pm)
Minimum temperature yesterday: 40 °F (at 2:53 am)
Average temperature yesterday: 52 °F

High & Low Weather Summary for the Past Weeks

 TemperatureHumidityPressure
High82 °F (Apr 14, 3:53 pm)100% (Apr 9, 7:53 am)30.39 "Hg (Apr 9, 7:53 am)
Low39 °F (Apr 9, 7:53 am)29% (Apr 9, 7:53 pm)29.88 "Hg (Apr 20, 4:53 pm)
Average61 °F75%30.11 "Hg
* Reported Apr 9 7:53 am — Apr 24 7:53 am, Cincinnati, Weather by CustomWeather, © 2017

Note: Actual official high and low records may vary slightly from our data, if they occured in-between our weather recording intervals... More about our weather records

Advertising

Cincinnati Weather History for the Previous 24 Hours

Scroll right to see more
 ConditionsComfort  
Time TempWeatherWind HumidityBarometerVisibility
7:53 am
Mon, Apr 24
48 °FSunny.3 mph83%29.94 "Hg10 mi
6:53 am46 °FSunny.3 mph83%29.94 "Hg10 mi
5:53 am44 °FClear.5 mph93%29.92 "Hg10 mi
4:53 am47 °FClear.3 mph83%29.93 "Hg10 mi
3:53 am46 °FPassing clouds.3 mph96%29.93 "Hg10 mi
2:53 am43 °FClear.5 mph97%29.95 "Hg10 mi
1:53 am46 °FClear.No wind93%29.96 "Hg10 mi
12:53 am47 °FClear.3 mph90%29.95 "Hg10 mi
11:53 pm
Sun, Apr 23
48 °FClear.5 mph93%29.97 "Hg10 mi
10:53 pm49 °FClear.3 mph93%29.99 "Hg10 mi
9:53 pm52 °FClear.No wind83%29.98 "Hg10 mi
8:53 pm54 °FClear.No wind83%29.97 "Hg10 mi
7:53 pm59 °FSunny.5 mph56%29.96 "Hg10 mi
6:53 pm62 °FSunny.8 mph50%29.96 "Hg10 mi
5:53 pm63 °FSunny.9 mph48%29.96 "Hg10 mi
4:53 pm63 °FSunny.13 mph45%29.96 "Hg10 mi
3:53 pm63 °FSunny.12 mph48%29.97 "Hg10 mi
2:53 pm62 °FSunny.14 mph48%29.98 "Hg10 mi
1:53 pm60 °FSunny.14 mph52%29.99 "Hg10 mi
12:53 pm59 °FSunny.9 mph56%30.01 "Hg10 mi
11:53 am58 °FSunny.13 mph58%30.04 "Hg10 mi
10:53 am54 °FSunny.10 mph64%30.06 "Hg10 mi
9:53 am53 °FSunny.10 mph61%30.05 "Hg10 mi
Weather by CustomWeather, © 2017

See weather overviewHow to use our weather pages